CW7834 Weather Reports


time (UTC)temp
F
wind
direction
speed
knots
gust
knots
rain 1hr
in
rain 24hr
in
rain mn
in
humidity
%
barometer
mb
20260510044741 43 119 0.0 1.7 0.00 0.00 0.00 96
20260510043741 43 112 2.6 2.6 0.00 0.00 0.00 96
20260510042741 43 110 0.0 1.7 0.00 0.00 0.00 96
20260510041742 44 112 1.7 3.5 0.00 0.00 0.00 96
20260510040743 44 144 1.7 2.6 0.00 0.00 0.00 96
20260510035741 43 151 0.9 0.9 0.00 0.00 0.49 96
20260510034741 44 160 0.0 0.0 0.00 0.00 0.49 96
20260510033741 44 160 0.0 0.0 0.00 0.00 0.49 96
20260510032741 44 160 0.0 0.0 0.00 0.00 0.49 96
20260510031742 45 160 0.0 0.0 0.00 0.00 0.49 96
20260510030741 45 160 0.0 0.0 0.00 0.00 0.49 96
20260510025741 45 160 0.0 0.0 0.00 0.00 0.49 96
20260510024741 45 160 0.0 0.0 0.00 0.00 0.49 96
20260510023741 45 160 0.0 0.0 0.00 0.00 0.49 95
20260510022741 46 160 0.0 0.0 0.00 0.00 0.49 95
20260510021741 46 160 0.0 0.0 0.00 0.00 0.49 95
20260510020741 46 160 0.0 0.0 0.00 0.00 0.49 95
20260510015741 47 160 0.0 0.0 0.00 0.00 0.49 95
20260510014741 47 160 0.0 0.0 0.00 0.00 0.49 95
20260510013741 48 160 0.0 0.0 0.00 0.00 0.49 95
20260510012741 48 160 0.0 1.7 0.00 0.00 0.49 94
20260510011741 48 160 0.0 1.7 0.00 0.00 0.49 95
20260510010741 49 160 0.9 0.9 0.00 0.00 0.49 94
20260510005741 49 160 0.0 0.9 0.00 0.00 0.49 94
20260510004741 50 160 0.0 1.7 0.00 0.00 0.49 94
20260510003742 50 160 0.0 0.9 0.00 0.00 0.49 94
20260510002741 51 160 0.9 1.7 0.00 0.00 0.49 93
20260510001741 51 160 1.7 2.6 0.00 0.00 0.49 93
20260510000741 52 228 0.9 2.6 0.00 0.00 0.49 92
20260509235741 53 229 0.9 0.9 0.00 0.00 0.49 91
20260509234741 54 229 0.0 2.6 0.00 0.00 0.49 90
20260509233741 54 229 0.0 5.2 0.00 0.00 0.49 89
20260509232741 55 254 2.6 5.2 0.00 0.00 0.49 89
20260509231741 56 216 0.9 7.8 0.00 0.00 0.49 88
20260509230741 56 232 2.6 7.8 0.00 0.00 0.49 89
20260509225742 56 238 1.7 6.1 0.00 0.00 0.49 91
20260509224741 56 281 0.9 7.0 0.00 0.00 0.49 92
20260509223741 55 244 1.7 8.7 0.00 0.00 0.49 92
20260509222741 54 233 2.6 6.1 0.00 0.00 0.49 93
20260509221741 54 241 3.5 8.7 0.00 0.00 0.49 95
20260509220741 54 269 0.9 7.0 0.00 0.00 0.48 95
20260509215741 53 217 3.5 7.8 0.00 0.00 0.48 95
20260509214741 53 239 2.6 6.1 0.00 0.00 0.48 95
20260509213741 53 209 2.6 5.2 0.00 0.00 0.48 95
20260509212741 52 224 0.9 4.3 0.00 0.00 0.48 95
20260509211741 52 182 0.9 5.2 0.00 0.00 0.48 95
20260509210741 52 225 2.6 10.4 0.00 0.00 0.48 94
20260509205742 52 236 5.2 9.6 0.00 0.00 0.48 94
20260509204741 52 242 3.5 8.7 0.00 0.00 0.48 94
20260509203741 52 264 1.7 6.1 0.00 0.00 0.48 95
20260509202742 52 219 2.6 7.8 0.00 0.00 0.48 94
20260509201741 52 219 0.9 8.7 0.00 0.00 0.48 95
20260509200741 52 292 1.7 8.7 0.00 0.00 0.47 95
20260509195741 52 207 0.9 7.0 0.00 0.00 0.47 95
20260509194740 52 228 1.7 12.2 0.00 0.00 0.46 94
20260509193741 52 275 3.5 10.4 0.00 0.00 0.45 94
20260509192741 52 196 3.5 9.6 0.00 0.00 0.45 94
20260509191740 51 252 3.5 10.4 0.00 0.00 0.44 94
20260509190740 51 216 4.3 8.7 0.00 0.00 0.44 93
20260509185740 51 194 1.7 10.4 0.00 0.00 0.43 93
20260509184740 52 226 8.7 15.6 0.00 0.00 0.42 93
20260509183740 52 212 7.0 8.7 0.00 0.00 0.42 94
20260509182741 52 277 3.5 8.7 0.00 0.00 0.41 94
20260509181740 52 248 2.6 11.3 0.00 0.00 0.40 94
20260509180741 52 216 5.2 9.6 0.00 0.00 0.38 94
20260509175740 52 298 2.6 10.4 0.00 0.00 0.38 95
20260509174740 52 202 4.3 7.0 0.00 0.00 0.37 95
20260509173741 52 252 1.7 6.1 0.00 0.00 0.36 95
20260509172741 52 288 3.5 7.0 0.00 0.00 0.36 95
20260509171740 52 229 2.6 9.6 0.00 0.00 0.36 95
20260509170740 52 210 2.6 7.8 0.00 0.00 0.35 95
20260509165740 52 208 2.6 5.2 0.00 0.00 0.33 94
20260509164740 52 227 3.5 6.1 0.00 0.00 0.31 94
20260509163744 52 242 0.9 4.3 0.00 0.00 0.28 95
20260509162740 52 257 0.9 2.6 0.00 0.00 0.27 94
20260509161740 52 258 0.0 2.6 0.00 0.00 0.26 94
20260509160740 52 277 0.0 0.0 0.00 0.00 0.25 95
20260509155740 52 279 0.0 1.7 0.00 0.00 0.25 95
20260509154740 51 279 1.7 2.6 0.00 0.00 0.24 95
20260509153740 51 287 0.0 1.7 0.00 0.00 0.24 96
20260509152740 51 42 0.0 0.0 0.00 0.00 0.24 96
20260509151740 51 43 0.0 0.9 0.00 0.00 0.23 96
20260509150740 50 46 0.0 0.0 0.00 0.00 0.23 96
20260509145740 50 46 0.0 0.0 0.00 0.00 0.22 96
20260509144740 50 46 0.0 0.0 0.00 0.00 0.22 96
20260509143740 50 46 0.0 0.0 0.00 0.00 0.22 97
20260509142740 50 46 0.0 0.0 0.00 0.00 0.21 96
20260509141740 50 46 0.0 0.0 0.00 0.00 0.20 96
20260509140740 50 46 0.0 0.0 0.00 0.00 0.19 96
20260509135740 50 46 0.0 0.0 0.00 0.00 0.18 96
20260509134740 49 46 0.0 1.7 0.00 0.00 0.17 96
20260509133740 49 44 0.0 1.7 0.00 0.00 0.16 96
20260509132742 49 44 1.7 2.6 0.00 0.00 0.15 96
20260509131741 49 50 0.0 0.9 0.00 0.00 0.14 96
20260509130740 49 50 0.0 1.7 0.00 0.00 0.13 96
20260509125740 49 50 0.0 0.9 0.00 0.00 0.12 96
20260509124740 49 50 0.0 0.9 0.00 0.00 0.11 97
20260509123740 48 50 0.0 0.9 0.00 0.00 0.10 96
20260509122740 48 50 0.0 1.7 0.00 0.00 0.10 96
20260509121740 48 50 0.9 1.7 0.00 0.00 0.10 96
20260509120740 48 50 0.9 2.6 0.00 0.00 0.10 97
20260509115740 48 69 0.0 0.0 0.00 0.00 0.10 96
20260509114740 47 68 0.0 0.0 0.00 0.00 0.10 96
20260509113740 47 68 0.0 2.6 0.00 0.00 0.10 96
20260509112740 47 71 0.9 2.6 0.00 0.00 0.10 96
20260509111742 46 74 0.0 0.0 0.00 0.00 0.10 96
20260509110740 46 74 0.0 0.0 0.00 0.00 0.10 96
20260509105740 46 74 0.0 0.0 0.00 0.00 0.10 96
20260509104740 46 74 0.0 0.0 0.00 0.00 0.10 96
20260509103740 46 74 0.0 0.0 0.00 0.00 0.10 96
20260509102740 46 74 0.0 0.0 0.00 0.00 0.10 96
20260509101740 46 74 0.0 0.0 0.00 0.00 0.10 96
20260509100740 46 74 0.0 1.7 0.00 0.00 0.09 96
20260509095740 45 74 0.0 1.7 0.00 0.00 0.09 96
20260509094740 45 74 0.9 1.7 0.00 0.00 0.09 96
20260509093740 45 74 0.0 1.7 0.00 0.00 0.09 96
20260509092740 45 74 0.0 0.9 0.00 0.00 0.09 96
20260509091740 45 74 0.0 0.9 0.00 0.00 0.09 96
20260509090740 45 74 0.0 1.7 0.00 0.00 0.09 96
20260509085740 45 74 0.9 1.7 0.00 0.00 0.09 96
20260509084741 45 74 0.0 0.9 0.00 0.00 0.09 95
20260509083742 45 74 0.0 0.9 0.00 0.00 0.09 95
20260509082741 45 74 0.0 1.7 0.00 0.00 0.09 95
20260509081740 45 74 0.0 0.0 0.00 0.00 0.09 95
20260509080740 45 74 0.0 0.9 0.00 0.00 0.08 95
20260509075740 45 74 0.0 1.7 0.00 0.00 0.08 95
20260509074740 45 74 0.9 2.6 0.00 0.00 0.08 95
20260509073740 45 84 1.7 2.6 0.00 0.00 0.08 95
20260509072740 45 145 0.0 0.9 0.00 0.00 0.07 95
20260509071740 45 145 0.9 1.7 0.00 0.00 0.06 94
20260509070740 45 146 0.0 0.0 0.00 0.00 0.06 94
20260509065740 45 146 0.0 0.0 0.00 0.00 0.05 94
20260509064740 45 146 0.0 0.0 0.00 0.00 0.04 94
20260509063740 44 146 0.0 2.6 0.00 0.00 0.03 94
20260509062740 44 148 0.9 2.6 0.00 0.00 0.03 93
20260509061741 44 82 0.0 1.7 0.00 0.00 0.02 93
20260509060740 44 83 0.0 1.7 0.00 0.00 0.02 93
20260509055740 44 80 0.0 1.7 0.00 0.00 0.01 93
20260509054740 44 80 0.0 3.5 0.00 0.00 0.01 92
20260509053740 44 151 1.7 1.7 0.00 0.00 0.01 92
20260509052740 44 152 0.0 0.0 0.00 0.00 0.01 92
20260509051740 44 152 0.0 0.0 0.00 0.00 0.00 92
20260509050740 44 152 0.0 0.0 0.00 0.00 0.00 92
20260509045741 44 152 0.0 1.7 0.00 0.00 0.00 92